TimeCDT,TemperatureF,Dew PointF,Humidity,Sea Level PressureIn,VisibilityMPH,Wind Direction,Wind SpeedMPH,Gust SpeedMPH,PrecipitationIn,Events,Conditions,WindDirDegrees,DateUTC
12:15 AM,41.0,41.0,100,30.20,7.0,Calm,Calm,-,N/A,,Clear,0,2013-08-14 05:15:00
12:35 AM,39.6,39.6,100,30.21,0.8,Calm,Calm,-,N/A,,Scattered Clouds,0,2013-08-14 05:35:00
12:55 AM,39.4,39.4,100,30.21,5.0,Calm,Calm,-,N/A,,Clear,0,2013-08-14 05:55:00
1:15 AM,37.6,37.6,100,30.21,0.8,Calm,Calm,-,N/A,,Mist,0,2013-08-14 06:15:00
1:35 AM,37.6,37.6,100,30.21,1.2,Calm,Calm,-,N/A,,Scattered Clouds,0,2013-08-14 06:35:00
1:55 AM,38.5,38.5,100,30.21,1.0,Calm,Calm,-,N/A,,Overcast,0,2013-08-14 06:55:00
2:15 AM,37.4,37.4,100,30.21,0.5,Calm,Calm,-,N/A,Fog,Fog,0,2013-08-14 07:15:00
2:35 AM,36.5,36.5,100,30.20,0.5,Calm,Calm,-,N/A,Fog,Fog,0,2013-08-14 07:35:00
2:55 AM,36.1,36.1,100,30.21,0.8,Calm,Calm,-,N/A,,Mostly Cloudy,0,2013-08-14 07:55:00
3:15 AM,36.7,36.7,100,30.20,4.0,Calm,Calm,-,N/A,,Scattered Clouds,0,2013-08-14 08:15:00
3:35 AM,35.8,35.8,100,30.21,10.0,Calm,Calm,-,N/A,,Scattered Clouds,0,2013-08-14 08:35:00
3:55 AM,36.0,36.0,100,30.21,3.0,Calm,Calm,-,N/A,,Scattered Clouds,0,2013-08-14 08:55:00
4:15 AM,34.2,34.2,100,30.20,1.0,Calm,Calm,-,N/A,,Mostly Cloudy,0,2013-08-14 09:15:00
4:35 AM,34.5,34.5,100,30.20,3.0,Calm,Calm,-,N/A,,Mostly Cloudy,0,2013-08-14 09:35:00
4:55 AM,35.2,35.2,100,30.21,3.0,Calm,Calm,-,N/A,,Mostly Cloudy,0,2013-08-14 09:55:00
5:15 AM,35.4,35.4,100,30.21,0.8,Calm,Calm,-,N/A,,Overcast,0,2013-08-14 10:15:00
5:35 AM,35.8,35.8,100,30.22,10.0,Calm,Calm,-,N/A,,Overcast,0,2013-08-14 10:35:00
5:55 AM,36.7,36.7,100,30.22,10.0,Calm,Calm,-,N/A,,Overcast,0,2013-08-14 10:55:00
6:15 AM,38.7,38.7,100,30.22,10.0,Calm,Calm,-,N/A,,Overcast,0,2013-08-14 11:15:00
6:35 AM,40.1,40.1,100,30.23,10.0,Calm,Calm,-,N/A,,Overcast,0,2013-08-14 11:35:00
6:55 AM,42.1,42.1,100,30.23,10.0,Calm,Calm,-,N/A,,Overcast,0,2013-08-14 11:55:00
7:15 AM,43.9,43.9,100,30.23,10.0,Calm,Calm,-,N/A,,Overcast,0,2013-08-14 12:15:00
7:35 AM,45.5,45.5,100,30.23,10.0,Calm,Calm,-,N/A,,Overcast,0,2013-08-14 12:35:00
7:55 AM,46.8,46.8,100,30.22,10.0,Calm,Calm,-,N/A,,Overcast,0,2013-08-14 12:55:00
8:15 AM,49.1,49.1,100,30.22,10.0,Calm,Calm,-,N/A,,Overcast,0,2013-08-14 13:15:00
8:35 AM,51.1,48.9,92,30.22,10.0,West,4.6,-,N/A,,Overcast,270,2013-08-14 13:35:00
8:55 AM,52.9,49.8,89,30.22,10.0,Calm,Calm,-,N/A,,Overcast,0,2013-08-14 13:55:00
9:15 AM,55.4,45.9,70,30.21,10.0,West,5.8,-,N/A,,Overcast,260,2013-08-14 14:15:00
9:35 AM,57.2,46.0,66,30.21,10.0,West,5.8,-,N/A,,Overcast,280,2013-08-14 14:35:00
9:55 AM,57.9,44.2,60,30.21,10.0,West,8.1,-,N/A,,Overcast,270,2013-08-14 14:55:00
10:15 AM,59.4,44.2,57,30.21,10.0,West,6.9,-,N/A,,Overcast,260,2013-08-14 15:15:00
10:35 AM,60.6,44.1,54,30.21,10.0,West,4.6,-,N/A,,Overcast,280,2013-08-14 15:35:00
10:55 AM,61.0,41.7,49,30.20,10.0,NW,5.8,-,N/A,,Mostly Cloudy,310,2013-08-14 15:55:00
11:15 AM,61.3,42.4,50,30.20,10.0,Calm,Calm,-,N/A,,Scattered Clouds,0,2013-08-14 16:15:00
11:35 AM,61.5,42.3,49,30.19,10.0,NW,5.8,-,N/A,,Mostly Cloudy,320,2013-08-14 16:35:00
11:55 AM,61.5,42.4,50,30.19,10.0,NNW,5.8,-,N/A,,Overcast,330,2013-08-14 16:55:00
12:15 PM,62.6,42.8,48,30.19,10.0,West,4.6,-,N/A,,Overcast,280,2013-08-14 17:15:00
12:35 PM,61.7,43.2,51,30.19,10.0,WNW,8.1,-,N/A,,Overcast,290,2013-08-14 17:35:00
12:55 PM,61.7,43.7,52,30.18,10.0,NW,5.8,-,N/A,,Overcast,310,2013-08-14 17:55:00
1:15 PM,63.1,43.2,48,30.18,10.0,West,8.1,-,N/A,,Mostly Cloudy,260,2013-08-14 18:15:00
1:35 PM,62.4,44.1,51,30.18,10.0,NW,3.5,-,N/A,,Overcast,310,2013-08-14 18:35:00
1:55 PM,64.8,44.6,48,30.17,10.0,WSW,8.1,-,N/A,,Mostly Cloudy,240,2013-08-14 18:55:00
2:55 PM,65.7,43.5,45,30.15,10.0,West,6.9,-,N/A,,Mostly Cloudy,260,2013-08-14 19:55:00
3:15 PM,65.8,44.1,45,30.15,10.0,NNW,10.4,-,N/A,,Overcast,330,2013-08-14 20:15:00
3:35 PM,66.0,42.3,42,30.15,10.0,WNW,5.8,-,N/A,,Mostly Cloudy,290,2013-08-14 20:35:00
3:55 PM,66.0,42.8,43,30.14,10.0,West,4.6,-,N/A,,Mostly Cloudy,280,2013-08-14 20:55:00
4:15 PM,66.9,41.5,40,30.14,10.0,NW,8.1,-,N/A,,Mostly Cloudy,310,2013-08-14 21:15:00
4:35 PM,68.0,40.1,36,30.14,10.0,NNW,11.5,-,N/A,,Mostly Cloudy,330,2013-08-14 21:35:00
4:55 PM,65.1,39.7,39,30.14,10.0,NW,8.1,-,N/A,,Mostly Cloudy,320,2013-08-14 21:55:00
5:15 PM,66.6,39.2,37,30.14,10.0,NW,10.4,19.6,N/A,,Scattered Clouds,320,2013-08-14 22:15:00
5:35 PM,66.2,38.5,36,30.14,10.0,NW,12.7,17.3,N/A,,Scattered Clouds,320,2013-08-14 22:35:00
5:55 PM,65.5,38.8,38,30.13,10.0,NW,12.7,-,N/A,,Clear,320,2013-08-14 22:55:00
6:15 PM,64.8,39.7,40,30.13,10.0,WNW,8.1,-,N/A,,Clear,300,2013-08-14 23:15:00
6:35 PM,64.0,39.4,40,30.13,10.0,NW,9.2,-,N/A,,Clear,310,2013-08-14 23:35:00
6:55 PM,63.0,39.6,42,30.13,10.0,WNW,5.8,-,N/A,,Clear,300,2013-08-14 23:55:00
7:15 PM,61.7,39.9,45,30.13,10.0,WNW,6.9,-,N/A,,Clear,300,2013-08-15 00:15:00
7:35 PM,60.3,40.6,48,30.13,10.0,WNW,4.6,-,N/A,,Clear,290,2013-08-15 00:35:00
7:55 PM,57.4,41.2,55,30.13,10.0,Calm,Calm,-,N/A,,Clear,0,2013-08-15 00:55:00
8:15 PM,53.4,43.3,69,30.13,10.0,Calm,Calm,-,N/A,,Clear,0,2013-08-15 01:15:00
8:35 PM,50.0,44.2,81,30.13,10.0,Calm,Calm,-,N/A,,Clear,0,2013-08-15 01:35:00
8:55 PM,50.7,44.1,78,30.13,10.0,Calm,Calm,-,N/A,,Clear,0,2013-08-15 01:55:00
9:15 PM,48.9,43.9,83,30.13,10.0,Calm,Calm,-,N/A,,Clear,0,2013-08-15 02:15:00
9:35 PM,46.9,43.0,86,30.13,10.0,Calm,Calm,-,N/A,,Clear,0,2013-08-15 02:35:00
9:55 PM,46.4,45.3,96,30.13,10.0,Calm,Calm,-,N/A,,Clear,0,2013-08-15 02:55:00
10:15 PM,46.4,45.7,97,30.13,10.0,Calm,Calm,-,N/A,,Clear,0,2013-08-15 03:15:00
10:35 PM,44.4,43.5,97,30.13,10.0,Calm,Calm,-,N/A,,Clear,0,2013-08-15 03:35:00
10:55 PM,44.4,44.2,99,30.13,10.0,Calm,Calm,-,N/A,,Clear,0,2013-08-15 03:55:00
11:15 PM,43.9,43.9,100,30.13,2.0,Calm,Calm,-,N/A,,Clear,0,2013-08-15 04:15:00
11:35 PM,44.6,44.6,100,30.13,1.8,Calm,Calm,-,N/A,,Mist,0,2013-08-15 04:35:00
11:55 PM,42.4,42.4,100,30.13,0.8,Calm,Calm,-,N/A,,Mostly Cloudy,0,2013-08-15 04:55:00